• In Belgien
  • Länderverzeichnis
  • Für 7 Tage
  • Wassertemperatur
  • Satellitenkarten
  • Wetterkarte
  • Widgets
  • user-avatar
    Anmelden

    Stündliche Wetter Sabaudia

    Heute, 21 April, Samstag

    Zeit Temperatur Niederschläge Wind Luftdruck Luftfeuchtigkeit
    00:00 +10°C° 0 mm 2 m/S 741 mmHg 66%
    01:00 +10°C° 0 mm 2 m/S 740 mmHg 68%
    02:00 +9°C° 0 mm 3 m/S 740 mmHg 69%
    03:00 +9°C° 0 mm 3 m/S 740 mmHg 70%
    04:00 +9°C° 0 mm 3 m/S 739 mmHg 71%
    05:00 +8°C° 0 mm 3 m/S 739 mmHg 72%
    06:00 +10°C° 0 mm 4 m/S 738 mmHg 67%
    07:00 +12°C° 0 mm 4 m/S 738 mmHg 62%
    08:00 +13°C° 0 mm 5 m/S 738 mmHg 57%
    09:00 +16°C° 0 mm 5 m/S 737 mmHg 52%
    10:00 +19°C° 0 mm 6 m/S 737 mmHg 48%
    11:00 +21°C° 0 mm 7 m/S 737 mmHg 44%
    12:00 +22°C° 0 mm 7 m/S 736 mmHg 44%
    13:00 +23°C° 0 mm 7 m/S 736 mmHg 44%
    14:00 +24°C° 0 mm 8 m/S 736 mmHg 44%
    15:00 +24°C° 0 mm 7 m/S 736 mmHg 48%
    16:00 +23°C° 0 mm 6 m/S 735 mmHg 51%
    17:00 +22°C° 0 mm 5 m/S 735 mmHg 55%
    18:00 +20°C° 0,2 mm 4 m/S 735 mmHg 58%
    19:00 +19°C° 0,2 mm 4 m/S 735 mmHg 62%
    20:00 +17°C° 0,2 mm 4 m/S 735 mmHg 65%
    21:00 +16°C° 0 mm 3 m/S 736 mmHg 68%
    22:00 +13°C° 0 mm 3 m/S 736 mmHg 70%
    23:00 +12°C° 0 mm 3 m/S 736 mmHg 73%

    Morgen, 22 April, Sonntag

    Zeit Temperatur Niederschläge Wind Luftdruck Luftfeuchtigkeit
    00:00 +12°C° 0 mm 2 m/S 737 mmHg 73%
    01:00 +10°C° 0 mm 2 m/S 737 mmHg 73%
    02:00 +9°C° 0 mm 2 m/S 737 mmHg 73%
    03:00 +8°C° 0 mm 2 m/S 737 mmHg 73%
    04:00 +8°C° 0 mm 2 m/S 737 mmHg 72%
    05:00 +7°C° 0 mm 2 m/S 737 mmHg 72%
    06:00 +8°C° 0 mm 2 m/S 737 mmHg 68%
    07:00 +9°C° 0 mm 2 m/S 738 mmHg 64%
    08:00 +10°C° 0 mm 2 m/S 738 mmHg 59%
    09:00 +12°C° 0 mm 3 m/S 738 mmHg 54%
    10:00 +14°C° 0 mm 3 m/S 738 mmHg 49%
    11:00 +16°C° 0 mm 3 m/S 738 mmHg 44%
    12:00 +17°C° 0 mm 3 m/S 738 mmHg 42%
    13:00 +17°C° 0 mm 4 m/S 737 mmHg 41%
    14:00 +18°C° 0 mm 4 m/S 737 mmHg 39%
    15:00 +18°C° 0 mm 4 m/S 737 mmHg 40%
    16:00 +18°C° 0 mm 4 m/S 737 mmHg 41%
    17:00 +18°C° 0 mm 3 m/S 736 mmHg 42%
    18:00 +16°C° 0 mm 3 m/S 736 mmHg 47%
    19:00 +14°C° 0 mm 2 m/S 736 mmHg 53%
    20:00 +12°C° 0 mm 1 m/S 736 mmHg 59%
    21:00 +12°C° 0 mm 1 m/S 736 mmHg 60%
    22:00 +11°C° 0 mm 1 m/S 737 mmHg 62%
    23:00 +10°C° 0 mm 1 m/S 737 mmHg 63%

    übermorgen, 23 April, Montag

    Zeit Temperatur Niederschläge Wind Luftdruck Luftfeuchtigkeit
    00:00 +10°C° 0 mm 1 m/S 737 mmHg 64%
    01:00 +10°C° 0 mm 1 m/S 737 mmHg 65%
    02:00 +10°C° 0 mm 1 m/S 736 mmHg 66%
    03:00 +9°C° 0 mm 1 m/S 736 mmHg 67%
    04:00 +9°C° 0 mm 1 m/S 736 mmHg 69%
    05:00 +8°C° 0 mm 1 m/S 736 mmHg 71%
    06:00 +10°C° 0 mm 1 m/S 736 mmHg 67%
    07:00 +10°C° 0 mm 0 m/S 736 mmHg 63%
    08:00 +12°C° 0 mm 0 m/S 736 mmHg 58%
    09:00 +14°C° 0 mm 0 m/S 736 mmHg 53%
    10:00 +16°C° 0 mm 1 m/S 736 mmHg 48%
    11:00 +19°C° 0 mm 1 m/S 736 mmHg 42%
    12:00 +20°C° 0 mm 1 m/S 736 mmHg 40%
    13:00 +20°C° 0 mm 1 m/S 735 mmHg 38%
    14:00 +20°C° 0 mm 2 m/S 735 mmHg 36%
    15:00 +20°C° 0 mm 2 m/S 735 mmHg 37%
    16:00 +21°C° 0 mm 2 m/S 734 mmHg 38%
    17:00 +21°C° 0 mm 2 m/S 734 mmHg 40%
    18:00 +19°C° 0,3 mm 2 m/S 733 mmHg 47%
    19:00 +17°C° 0,3 mm 2 m/S 733 mmHg 54%
    20:00 +16°C° 0,3 mm 3 m/S 732 mmHg 62%
    21:00 +14°C° 2 mm 3 m/S 732 mmHg 70%
    22:00 +13°C° 2 mm 3 m/S 732 mmHg 79%
    23:00 +13°C° 2 mm 4 m/S 732 mmHg 88%

    24 April, Dienstag

    Zeit Temperatur Niederschläge Wind Luftdruck Luftfeuchtigkeit
    00:00 +13°C° 0,1 mm 3 m/S 732 mmHg 90%
    01:00 +13°C° 0,1 mm 3 m/S 732 mmHg 92%
    02:00 +13°C° 0,1 mm 3 m/S 731 mmHg 95%
    03:00 +13°C° 0,1 mm 3 m/S 732 mmHg 95%
    04:00 +13°C° 0,1 mm 3 m/S 732 mmHg 95%
    05:00 +12°C° 0,1 mm 3 m/S 732 mmHg 96%
    06:00 +13°C° 0,2 mm 4 m/S 733 mmHg 93%
    07:00 +13°C° 0,2 mm 4 m/S 733 mmHg 91%
    08:00 +13°C° 0,2 mm 4 m/S 734 mmHg 89%
    09:00 +14°C° 0,1 mm 5 m/S 735 mmHg 80%
    10:00 +15°C° 0,1 mm 5 m/S 735 mmHg 70%
    11:00 +15°C° 0,1 mm 6 m/S 736 mmHg 61%
    12:00 +16°C° 0 mm 6 m/S 736 mmHg 59%
    13:00 +16°C° 0 mm 6 m/S 736 mmHg 58%
    14:00 +16°C° 0 mm 6 m/S 735 mmHg 56%
    15:00 +16°C° 0 mm 5 m/S 735 mmHg 56%
    16:00 +16°C° 0 mm 5 m/S 735 mmHg 55%
    17:00 +17°C° 0 mm 4 m/S 735 mmHg 55%
    18:00 +15°C° 0 mm 4 m/S 735 mmHg 60%
    19:00 +14°C° 0 mm 3 m/S 735 mmHg 65%
    20:00 +14°C° 0 mm 2 m/S 735 mmHg 70%
    21:00 +13°C° 0 mm 2 m/S 735 mmHg 72%
    22:00 +12°C° 0 mm 3 m/S 735 mmHg 74%
    23:00 +12°C° 0 mm 3 m/S 735 mmHg 75%

    25 April, Mittwoch

    Zeit Temperatur Niederschläge Wind Luftdruck Luftfeuchtigkeit
    00:00 +12°C° 0 mm 3 m/S 735 mmHg 75%
    01:00 +11°C° 0 mm 4 m/S 735 mmHg 75%
    02:00 +11°C° 0 mm 4 m/S 735 mmHg 75%
    03:00 +11°C° 0 mm 4 m/S 735 mmHg 75%
    04:00 +11°C° 0 mm 4 m/S 735 mmHg 75%
    05:00 +11°C° 0 mm 4 m/S 734 mmHg 75%
    06:00 +12°C° 0 mm 4 m/S 735 mmHg 73%
    07:00 +13°C° 0 mm 4 m/S 735 mmHg 71%
    08:00 +14°C° 0 mm 4 m/S 735 mmHg 69%
    09:00 +16°C° 0 mm 5 m/S 735 mmHg 64%
    10:00 +17°C° 0 mm 5 m/S 735 mmHg 58%
    11:00 +20°C° 0 mm 6 m/S 735 mmHg 53%
    12:00 +21°C° 0 mm 6 m/S 735 mmHg 51%
    13:00 +21°C° 0 mm 6 m/S 735 mmHg 49%
    14:00 +22°C° 0 mm 6 m/S 734 mmHg 48%
    15:00 +22°C° 0 mm 6 m/S 734 mmHg 50%
    16:00 +22°C° 0 mm 5 m/S 733 mmHg 52%
    17:00 +22°C° 0 mm 4 m/S 733 mmHg 53%
    18:00 +21°C° 0,2 mm 4 m/S 732 mmHg 59%
    19:00 +19°C° 0,2 mm 3 m/S 732 mmHg 65%
    20:00 +17°C° 0,2 mm 3 m/S 732 mmHg 71%
    21:00 +17°C° 0,4 mm 3 m/S 732 mmHg 75%
    22:00 +16°C° 0,4 mm 3 m/S 732 mmHg 80%
    23:00 +16°C° 0,4 mm 3 m/S 732 mmHg 84%

    26 April, Donnerstag

    Zeit Temperatur Niederschläge Wind Luftdruck Luftfeuchtigkeit
    00:00 +14°C° 0,4 mm 3 m/S 731 mmHg 87%
    01:00 +14°C° 0,4 mm 3 m/S 731 mmHg 90%
    02:00 +13°C° 0,4 mm 4 m/S 731 mmHg 92%
    03:00 +13°C° 0 mm 4 m/S 731 mmHg 92%
    04:00 +13°C° 0 mm 4 m/S 731 mmHg 92%
    05:00 +13°C° 0 mm 4 m/S 731 mmHg 92%
    06:00 +14°C° 0 mm 4 m/S 731 mmHg 88%
    07:00 +15°C° 0 mm 4 m/S 732 mmHg 84%
    08:00 +16°C° 0 mm 5 m/S 732 mmHg 80%
    09:00 +17°C° 0,1 mm 5 m/S 732 mmHg 75%
    10:00 +19°C° 0,1 mm 5 m/S 733 mmHg 70%
    11:00 +19°C° 0,1 mm 5 m/S 733 mmHg 64%
    12:00 +19°C° 0,2 mm 5 m/S 733 mmHg 64%
    13:00 +19°C° 0,2 mm 5 m/S 733 mmHg 63%
    14:00 +19°C° 0,2 mm 4 m/S 733 mmHg 62%
    15:00 +18°C° 0,8 mm 4 m/S 733 mmHg 68%
    16:00 +17°C° 0,8 mm 4 m/S 732 mmHg 74%
    17:00 +16°C° 0,8 mm 3 m/S 732 mmHg 81%
    18:00 +14°C° 0,3 mm 4 m/S 732 mmHg 82%
    19:00 +14°C° 0,3 mm 4 m/S 733 mmHg 84%
    20:00 +13°C° 0,3 mm 5 m/S 733 mmHg 85%
    21:00 +12°C° 0 mm 5 m/S 733 mmHg 84%
    22:00 +11°C° 0 mm 4 m/S 734 mmHg 82%
    23:00 +11°C° 0 mm 4 m/S 734 mmHg 80%
    Mehr zeigen